Time,TemperatureF,DewpointF,PressureIn,WindDirection,WindDirectionDegrees,WindSpeedMPH,WindSpeedGustMPH,Humidity,HourlyPrecipIn,Conditions,Clouds,dailyrainin,SoftwareType,DateUTC
2013-03-01 00:11:00,46.6,36.0,29.80,NW,320,13.0,19.0,68,0.00,,,0.00,weatherlink.com 1.10,2013-03-01 05:11:00,
2013-03-01 00:26:00,46.5,35.0,29.81,NNW,343,22.0,23.0,64,0.00,,,0.00,weatherlink.com 1.10,2013-03-01 05:26:00,
2013-03-01 00:41:00,46.2,36.0,29.81,North,356,20.0,-999.0,67,-99.99,,,0.00,weatherlink.com 1.10,2013-03-01 05:41:00,
2013-03-01 00:57:00,45.6,35.0,29.81,NW,311,12.0,21.0,66,0.00,,,0.00,weatherlink.com 1.10,2013-03-01 05:57:00,
2013-03-01 01:12:00,45.0,35.0,29.81,NNW,342,13.0,21.0,67,0.00,,,0.00,weatherlink.com 1.10,2013-03-01 06:12:00,
2013-03-01 01:27:00,44.7,35.0,29.81,NNE,27,11.0,19.0,69,0.00,,,0.00,weatherlink.com 1.10,2013-03-01 06:27:00,
2013-03-01 01:42:00,44.4,35.0,29.82,NNW,348,7.0,21.0,69,0.00,,,0.00,weatherlink.com 1.10,2013-03-01 06:42:00,
2013-03-01 01:57:00,44.2,35.0,29.82,WNW,291,17.0,23.0,69,0.00,,,0.00,weatherlink.com 1.10,2013-03-01 06:57:00,
2013-03-01 02:12:00,44.0,34.0,29.82,NNE,25,13.0,19.0,69,0.00,,,0.00,weatherlink.com 1.10,2013-03-01 07:12:00,
2013-03-01 02:27:00,43.7,35.0,29.81,NNW,342,13.0,21.0,71,0.00,,,0.00,weatherlink.com 1.10,2013-03-01 07:27:00,
2013-03-01 02:42:00,43.2,34.0,29.82,North,11,21.0,21.0,69,0.00,,,0.00,weatherlink.com 1.10,2013-03-01 07:42:00,
2013-03-01 02:57:00,-999.0,-99.9,29.81,North,-999,-999.0,-999.0,-999,0.00,,,0.00,weatherlink.com 1.10,2013-03-01 07:57:00,
2013-03-01 03:12:00,-999.0,-99.9,29.81,North,-999,-999.0,-999.0,-999,0.00,,,0.00,weatherlink.com 1.10,2013-03-01 08:12:00,
2013-03-01 03:27:00,-999.0,-99.9,29.82,North,-999,-999.0,-999.0,-999,0.00,,,0.00,weatherlink.com 1.10,2013-03-01 08:27:00,
2013-03-01 03:42:00,-999.0,-99.9,29.81,North,-999,-999.0,-999.0,-999,0.00,,,0.00,weatherlink.com 1.10,2013-03-01 08:42:00,
2013-03-01 03:57:00,-999.0,-99.9,29.82,North,-999,-999.0,-999.0,-999,0.00,,,0.00,weatherlink.com 1.10,2013-03-01 08:57:00,
2013-03-01 04:12:00,-999.0,-99.9,29.82,North,-999,-999.0,-999.0,-999,0.00,,,0.00,weatherlink.com 1.10,2013-03-01 09:12:00,
2013-03-01 04:27:00,-999.0,-99.9,29.82,North,-999,-999.0,-999.0,-999,0.00,,,0.00,weatherlink.com 1.10,2013-03-01 09:27:00,
2013-03-01 04:42:00,-999.0,-99.9,29.81,North,-999,-999.0,-999.0,-999,0.00,,,0.00,weatherlink.com 1.10,2013-03-01 09:42:00,
2013-03-01 04:58:00,-999.0,-99.9,29.82,North,-999,-999.0,-999.0,-999,0.00,,,0.00,weatherlink.com 1.10,2013-03-01 09:58:00,
2013-03-01 05:13:00,-999.0,-99.9,29.82,North,-999,-999.0,-999.0,-999,0.00,,,0.00,weatherlink.com 1.10,2013-03-01 10:13:00,
2013-03-01 05:28:00,-999.0,-99.9,29.83,North,-999,-999.0,-999.0,-999,0.00,,,0.00,weatherlink.com 1.10,2013-03-01 10:28:00,
2013-03-01 05:58:00,-999.0,-99.9,29.84,North,-999,-999.0,-999.0,-999,0.00,,,0.00,weatherlink.com 1.10,2013-03-01 10:58:00,
2013-03-01 06:13:00,-999.0,-99.9,29.84,North,-999,-999.0,-999.0,-999,0.00,,,0.00,weatherlink.com 1.10,2013-03-01 11:13:00,
2013-03-01 06:28:00,-999.0,-99.9,29.84,North,-999,-999.0,-999.0,-999,0.00,,,0.00,weatherlink.com 1.10,2013-03-01 11:28:00,
2013-03-01 06:43:00,-999.0,-99.9,29.84,North,-999,-999.0,-999.0,-999,0.00,,,0.00,weatherlink.com 1.10,2013-03-01 11:43:00,
2013-03-01 06:58:00,42.0,36.0,29.85,NNW,348,8.0,17.0,78,0.00,,,0.00,weatherlink.com 1.10,2013-03-01 11:58:00,
2013-03-01 07:13:00,42.4,36.0,29.85,NNW,333,8.0,17.0,77,0.00,,,0.00,weatherlink.com 1.10,2013-03-01 12:13:00,
2013-03-01 07:28:00,42.7,36.0,29.86,NW,323,8.0,16.0,76,0.00,,,0.00,weatherlink.com 1.10,2013-03-01 12:28:00,
2013-03-01 07:44:00,42.7,36.0,29.86,NW,317,9.0,16.0,76,0.00,,,0.00,weatherlink.com 1.10,2013-03-01 12:44:00,
2013-03-01 07:58:00,42.7,36.0,29.86,NW,326,12.0,16.0,76,0.00,,,0.00,weatherlink.com 1.10,2013-03-01 12:58:00,
2013-03-01 08:13:00,42.9,36.0,29.86,NW,314,10.0,16.0,77,0.00,,,0.00,weatherlink.com 1.10,2013-03-01 13:13:00,
2013-03-01 08:28:00,43.6,37.0,29.86,NNE,12,8.0,19.0,76,0.00,,,0.00,weatherlink.com 1.10,2013-03-01 13:28:00,
2013-03-01 08:43:00,43.8,36.0,29.86,NNW,336,7.0,16.0,75,0.00,,,0.00,weatherlink.com 1.10,2013-03-01 13:43:00,
2013-03-01 08:58:00,44.0,36.0,29.86,NW,316,11.0,16.0,73,0.00,,,0.00,weatherlink.com 1.10,2013-03-01 13:58:00,
2013-03-01 09:13:00,43.9,36.0,29.85,NNW,333,10.0,17.0,74,0.00,,,0.00,weatherlink.com 1.10,2013-03-01 14:13:00,
2013-03-01 09:28:00,44.4,37.0,29.86,NNE,13,13.0,15.0,74,0.00,,,0.00,weatherlink.com 1.10,2013-03-01 14:28:00,
2013-03-01 09:43:00,44.8,37.0,29.85,NE,37,7.0,16.0,74,0.00,,,0.00,weatherlink.com 1.10,2013-03-01 14:43:00,
2013-03-01 09:58:00,44.8,37.0,29.85,NNE,19,9.0,16.0,75,0.00,,,0.00,weatherlink.com 1.10,2013-03-01 14:58:00,
2013-03-01 10:13:00,45.1,38.0,29.85,North,9,13.0,15.0,75,0.00,,,0.00,weatherlink.com 1.10,2013-03-01 15:13:00,
2013-03-01 10:28:00,45.3,38.0,29.85,North,9,10.0,13.0,76,0.00,,,0.00,weatherlink.com 1.10,2013-03-01 15:28:00,
2013-03-01 10:43:00,45.9,39.0,29.85,North,353,5.0,12.0,76,0.00,,,0.00,weatherlink.com 1.10,2013-03-01 15:43:00,
2013-03-01 10:58:00,46.3,38.0,29.85,NW,325,6.0,14.0,74,0.00,,,0.00,weatherlink.com 1.10,2013-03-01 15:58:00,
2013-03-01 11:13:00,46.8,38.0,29.85,NNE,30,6.0,13.0,72,0.00,,,0.00,weatherlink.com 1.10,2013-03-01 16:13:00,
2013-03-01 11:28:00,46.9,37.0,29.85,NNW,347,9.0,12.0,69,0.00,,,0.00,weatherlink.com 1.10,2013-03-01 16:28:00,
2013-03-01 11:43:00,47.8,37.0,29.86,NNE,15,7.0,12.0,67,0.00,,,0.00,weatherlink.com 1.10,2013-03-01 16:43:00,
2013-03-01 11:58:00,47.9,38.0,29.86,NNW,342,3.0,11.0,68,0.00,,,0.00,weatherlink.com 1.10,2013-03-01 16:58:00,
2013-03-01 12:13:00,48.6,37.0,29.86,NW,319,8.0,10.0,65,0.00,,,0.00,weatherlink.com 1.10,2013-03-01 17:13:00,
2013-03-01 12:28:00,48.5,37.0,29.85,NNW,336,7.0,11.0,65,0.00,,,0.00,weatherlink.com 1.10,2013-03-01 17:28:00,
2013-03-01 12:43:00,48.8,37.0,29.84,WNW,302,5.0,9.0,64,0.00,,,0.00,weatherlink.com 1.10,2013-03-01 17:43:00,
2013-03-01 12:58:00,48.7,37.0,29.84,NE,40,4.0,9.0,64,0.00,,,0.00,weatherlink.com 1.10,2013-03-01 17:58:00,
2013-03-01 13:13:00,48.5,37.0,29.83,SSW,199,1.0,8.0,64,0.00,,,0.00,weatherlink.com 1.10,2013-03-01 18:13:00,
2013-03-01 13:28:00,48.7,36.0,29.83,NW,305,5.0,8.0,62,0.00,,,0.00,weatherlink.com 1.10,2013-03-01 18:28:00,
2013-03-01 13:44:00,48.3,35.0,29.83,NNE,12,5.0,8.0,61,0.00,,,0.00,weatherlink.com 1.10,2013-03-01 18:44:00,
2013-03-01 13:59:00,48.8,34.0,29.83,NW,309,6.0,9.0,58,0.00,,,0.00,weatherlink.com 1.10,2013-03-01 18:59:00,
2013-03-01 14:14:00,49.0,36.0,29.83,NW,315,7.0,9.0,62,0.00,,,0.00,weatherlink.com 1.10,2013-03-01 19:14:00,
2013-03-01 14:29:00,48.5,36.0,29.83,WNW,288,7.0,10.0,62,0.00,,,0.00,weatherlink.com 1.10,2013-03-01 19:29:00,
2013-03-01 14:44:00,49.0,35.0,29.82,NNE,13,4.0,10.0,60,0.00,,,0.00,weatherlink.com 1.10,2013-03-01 19:44:00,
2013-03-01 14:59:00,48.9,37.0,29.83,WNW,283,3.0,9.0,63,0.00,,,0.00,weatherlink.com 1.10,2013-03-01 19:59:00,
2013-03-01 15:14:00,48.5,36.0,29.82,NW,320,3.0,9.0,62,0.00,,,0.00,weatherlink.com 1.10,2013-03-01 20:14:00,
2013-03-01 15:29:00,48.5,36.0,29.82,WNW,302,5.0,11.0,62,0.00,,,0.00,weatherlink.com 1.10,2013-03-01 20:29:00,
2013-03-01 15:44:00,48.6,37.0,29.82,WNW,288,4.0,8.0,64,0.00,,,0.00,weatherlink.com 1.10,2013-03-01 20:44:00,
2013-03-01 15:59:00,48.5,37.0,29.82,WNW,301,2.0,7.0,65,0.00,,,0.00,weatherlink.com 1.10,2013-03-01 20:59:00,
2013-03-01 16:14:00,48.5,37.0,29.82,NW,315,3.0,7.0,64,0.00,,,0.00,weatherlink.com 1.10,2013-03-01 21:14:00,
2013-03-01 16:29:00,48.5,38.0,29.83,WNW,300,0.0,6.0,68,0.00,,,0.00,weatherlink.com 1.10,2013-03-01 21:29:00,
2013-03-01 16:44:00,48.3,38.0,29.83,ESE,115,10.0,10.0,68,0.00,,,0.00,weatherlink.com 1.10,2013-03-01 21:44:00,
2013-03-01 16:59:00,46.5,38.0,29.83,SE,130,3.0,7.0,73,0.00,,,0.00,weatherlink.com 1.10,2013-03-01 21:59:00,
2013-03-01 17:14:00,46.1,38.0,29.84,ESE,103,7.0,9.0,74,0.00,,,0.00,weatherlink.com 1.10,2013-03-01 22:14:00,
2013-03-01 17:29:00,46.0,38.0,29.84,SE,135,5.0,7.0,74,0.00,,,0.00,weatherlink.com 1.10,2013-03-01 22:29:00,
2013-03-01 17:44:00,45.8,39.0,29.84,ESE,117,3.0,5.0,76,0.00,,,0.00,weatherlink.com 1.10,2013-03-01 22:44:00,
2013-03-01 17:59:00,45.7,39.0,29.85,SSE,150,4.0,6.0,77,0.00,,,0.00,weatherlink.com 1.10,2013-03-01 22:59:00,
2013-03-01 18:14:00,45.3,39.0,29.85,SE,133,3.0,6.0,77,0.00,,,0.00,weatherlink.com 1.10,2013-03-01 23:14:00,
2013-03-01 18:29:00,45.4,39.0,29.86,SSE,158,2.0,4.0,77,0.00,,,0.00,weatherlink.com 1.10,2013-03-01 23:29:00,
2013-03-01 18:44:00,45.6,39.0,29.86,SSE,150,3.0,6.0,77,0.00,,,0.00,weatherlink.com 1.10,2013-03-01 23:44:00,
2013-03-01 18:59:00,45.5,39.0,29.86,SE,145,2.0,3.0,77,0.00,,,0.00,weatherlink.com 1.10,2013-03-01 23:59:00,
2013-03-01 19:14:00,45.6,39.0,29.87,SE,142,3.0,5.0,78,0.00,,,0.00,weatherlink.com 1.10,2013-03-02 00:14:00,
2013-03-01 19:29:00,45.5,39.0,29.87,ESE,122,1.0,6.0,77,0.00,,,0.00,weatherlink.com 1.10,2013-03-02 00:29:00,
2013-03-01 19:44:00,45.5,38.0,29.88,SE,134,3.0,6.0,76,0.00,,,0.00,weatherlink.com 1.10,2013-03-02 00:44:00,
2013-03-01 20:14:00,45.2,38.0,29.88,ESE,109,3.0,3.0,77,0.00,,,0.00,weatherlink.com 1.10,2013-03-02 01:14:00,
2013-03-01 20:29:00,44.9,38.0,29.88,SE,134,1.0,3.0,78,0.00,,,0.00,weatherlink.com 1.10,2013-03-02 01:29:00,
2013-03-01 20:44:00,45.4,39.0,29.88,SE,129,2.0,5.0,77,0.00,,,0.00,weatherlink.com 1.10,2013-03-02 01:44:00,
2013-03-01 20:59:00,45.4,38.0,29.89,SE,136,1.0,4.0,76,0.00,,,0.00,weatherlink.com 1.10,2013-03-02 01:59:00,
2013-03-01 21:14:00,45.5,39.0,29.89,ESE,115,0.0,2.0,77,0.00,,,0.00,weatherlink.com 1.10,2013-03-02 02:14:00,
2013-03-01 21:29:00,45.5,39.0,29.89,SSE,150,0.0,1.0,77,0.00,,,0.00,weatherlink.com 1.10,2013-03-02 02:29:00,
2013-03-01 21:44:00,45.5,39.0,29.89,SE,146,0.0,3.0,78,0.00,,,0.00,weatherlink.com 1.10,2013-03-02 02:44:00,
2013-03-01 21:59:00,45.4,39.0,29.89,WSW,251,2.0,3.0,77,0.00,,,0.00,weatherlink.com 1.10,2013-03-02 02:59:00,
2013-03-01 22:14:00,46.4,36.0,29.89,NNW,348,5.0,15.0,68,0.00,,,0.00,weatherlink.com 1.10,2013-03-02 03:14:00,
2013-03-01 22:29:00,46.6,36.0,29.89,NE,40,11.0,14.0,67,0.00,,,0.00,weatherlink.com 1.10,2013-03-02 03:29:00,
2013-03-01 22:44:00,46.5,36.0,29.88,North,354,8.0,15.0,68,0.00,,,0.00,weatherlink.com 1.10,2013-03-02 03:44:00,
2013-03-01 22:59:00,46.3,36.0,29.88,NNW,346,12.0,16.0,67,0.00,,,0.00,weatherlink.com 1.10,2013-03-02 03:59:00,
2013-03-01 23:14:00,46.3,36.0,29.88,NNW,343,8.0,17.0,68,0.00,,,0.00,weatherlink.com 1.10,2013-03-02 04:14:00,
2013-03-01 23:29:00,46.1,36.0,29.88,NW,315,11.0,15.0,68,0.00,,,0.00,weatherlink.com 1.10,2013-03-02 04:29:00,
2013-03-01 23:44:00,46.0,36.0,29.88,North,353,11.0,17.0,68,0.00,,,0.00,weatherlink.com 1.10,2013-03-02 04:44:00,
2013-03-01 23:59:00,45.9,36.0,29.89,NNW,347,14.0,15.0,68,0.00,,,0.00,weatherlink.com 1.10,2013-03-02 04:59:00,